Omaha Millard, NE

12:38 PM CDT on July 20, 2017 (GMT -0500)
Millard Municipal

Weather History for KMLE - November, 2012

Change the Weather History Date:

Friday, November 9, 2012

  Actual Average (KOFF) Record (KOFF)
Temperature  
Mean Temperature 52 °F -  
Max Temperature 64 °F 50 °F 71 °F (2010)
Min Temperature 39 °F 32 °F 19 °F (2000)
Degree Days  
Heating Degree Days 14    
Growing Degree Days 2 (Base 50)    
Moisture  
Dew Point 46 °F    
Average Humidity 78    
Maximum Humidity 93    
Minimum Humidity 60    
Precipitation  
Precipitation 0.00 in - - ()
Sea Level Pressure  
Sea Level Pressure 29.76 in    
Wind  
Wind Speed 3 mph (ESE)    
Max Wind Speed 14 mph    
Max Gust Speed 18 mph    
Visibility 10 miles    
Events      
Averages and records for this station are not official NWS values.
T = Trace of Precipitation, MM = Missing Value Source: NWS Daily Summary

Daily Weather History Graph

Daily Weather History Graph

Search for Another Location

Airport or City:

Trip Planner

Search our weather history database for the weather conditions in past years. The results will help you decide how hot, cold, wet, or windy it might be!

Date:

Astronomy

Nov. 09, 2012 Rise Set
Actual Time 7:05 AM CST 5:10 PM CST
Civil Twilight 6:36 AM CST 5:39 PM CST
Nautical Twilight 6:03 AM CST 6:12 PM CST
Astronomical Twilight 5:31 AM CST 6:44 PM CST
Moon 2:03 AM CST (11/9) 2:26 PM CST (11/9)
Length of Visible Light 11h 02m
Length of Day
10h 04m
Waning Crescent, 23% of the Moon is Illuminated
Nov 9
Waning Crescent
Nov 13
New
Nov 20
First Quarter
Nov 28
Full
Dec 6
Last Quarter

Hourly Weather History & Observations

Time (CST) Temp. Windchill Dew Point Humidity Pressure Visibility Wind Dir Wind Speed Gust Speed Precip Events Conditions
12:15 AM 41.4 °F - 37.8 °F 87% 29.86 in 10.0 mi Calm Calm - N/A   Clear
12:35 AM 41.0 °F - 37.9 °F 89% 29.86 in 10.0 mi Calm Calm - N/A   Clear
12:55 AM 41.0 °F - 38.3 °F 90% 29.85 in 10.0 mi Calm Calm - N/A   Clear
1:15 AM 41.0 °F - 38.3 °F 90% 29.84 in 10.0 mi Calm Calm - N/A   Clear
1:35 AM 41.4 °F - 39.2 °F 92% 29.85 in 10.0 mi Calm Calm - N/A   Clear
1:55 AM 41.0 °F - 38.7 °F 91% 29.84 in 10.0 mi Calm Calm - N/A   Clear
2:15 AM 40.5 °F - 38.1 °F 91% 29.84 in 10.0 mi Calm Calm - N/A   Clear
2:35 AM 40.5 °F - 37.9 °F 91% 29.84 in 10.0 mi Calm Calm - N/A   Clear
2:55 AM 39.9 °F - 37.8 °F 92% 29.84 in 10.0 mi Calm Calm - N/A   Clear
3:15 AM 39.6 °F - 37.6 °F 93% 29.84 in 10.0 mi Calm Calm - N/A   Clear
3:35 AM 39.2 °F - 37.4 °F 93% 29.83 in 10.0 mi Calm Calm - N/A   Clear
3:55 AM 39.2 °F 37.0 °F 37.4 °F 93% 29.83 in 10.0 mi WNW 3.5 mph - N/A   Clear
4:15 AM 40.1 °F - 37.4 °F 90% 29.83 in 10.0 mi Calm Calm - N/A   Clear
4:35 AM 39.4 °F - 37.4 °F 93% 29.83 in 10.0 mi Calm Calm - N/A   Clear
4:55 AM 39.2 °F - 37.4 °F 93% 29.84 in 10.0 mi Calm Calm - N/A   Clear
5:15 AM 39.7 °F - 37.4 °F 91% 29.84 in 10.0 mi Calm Calm - N/A   Clear
5:55 AM 40.5 °F 38.4 °F 37.6 °F 89% 29.84 in 10.0 mi NW 3.5 mph - N/A   Clear
6:15 AM 40.8 °F 38.8 °F 37.6 °F 88% 29.84 in 10.0 mi WNW 3.5 mph - N/A   Clear
6:35 AM 40.5 °F - 37.8 °F 90% 29.83 in 10.0 mi Calm Calm - N/A   Clear
6:55 AM 42.6 °F - 39.0 °F 87% 29.85 in 10.0 mi Calm Calm - N/A   Clear
7:35 AM 42.4 °F - 38.7 °F 86% 29.85 in 10.0 mi Calm Calm - N/A   Clear
7:55 AM 43.3 °F - 39.4 °F 86% 29.85 in 10.0 mi Calm Calm - N/A   Clear
8:15 AM 44.4 °F - 40.3 °F 85% 29.86 in 10.0 mi Calm Calm - N/A   Clear
8:35 AM 45.7 °F - 40.8 °F 83% 29.85 in 10.0 mi Calm Calm - N/A   Clear
8:55 AM 47.3 °F - 41.0 °F 79% 29.85 in 10.0 mi Calm Calm - N/A   Clear
9:15 AM 48.0 °F - 41.0 °F 77% 29.85 in 10.0 mi Calm Calm - N/A   Clear
9:35 AM 49.3 °F - 41.9 °F 76% 29.84 in 10.0 mi Calm Calm - N/A   Clear
9:55 AM 51.4 °F - 43.0 °F 73% 29.83 in 10.0 mi ESE 3.5 mph - N/A   Clear
10:15 AM 52.7 °F - 43.5 °F 71% 29.83 in 10.0 mi ESE 4.6 mph - N/A   Clear
10:55 AM 55.0 °F - 44.6 °F 68% 29.83 in 10.0 mi East 5.8 mph - N/A   Clear
11:15 AM 56.3 °F - 45.1 °F 66% 29.81 in 10.0 mi East 5.8 mph - N/A   Clear
11:35 AM 58.1 °F - 46.0 °F 64% 29.79 in 10.0 mi ESE 8.1 mph - N/A   Clear
11:55 AM 58.6 °F - 46.4 °F 64% 29.77 in 10.0 mi SE 9.2 mph - N/A   Clear
12:15 PM 59.4 °F - 46.9 °F 63% 29.77 in 10.0 mi SE 9.2 mph - N/A   Clear
12:35 PM 60.6 °F - 47.5 °F 62% 29.76 in 10.0 mi East 8.1 mph - N/A   Clear
12:55 PM 61.3 °F - 47.8 °F 61% 29.76 in 10.0 mi ESE 6.9 mph - N/A   Clear
1:15 PM 61.5 °F - 48.0 °F 61% 29.76 in 10.0 mi ESE 4.6 mph - N/A   Scattered Clouds
1:35 PM 62.6 °F - 49.1 °F 61% 29.74 in 10.0 mi ESE 9.2 mph - N/A   Scattered Clouds
1:55 PM 62.4 °F - 48.9 °F 61% 29.74 in 10.0 mi SE 9.2 mph - N/A   Clear
2:15 PM 63.7 °F - 49.5 °F 60% 29.73 in 10.0 mi ESE 5.8 mph - N/A   Clear
2:35 PM 64.2 °F - 50.4 °F 61% 29.73 in 10.0 mi ESE 10.4 mph 18.4 mph N/A   Clear
2:55 PM 64.0 °F - 50.5 °F 61% 29.72 in 10.0 mi SE 13.8 mph - N/A   Clear
3:15 PM 63.9 °F - 50.2 °F 61% 29.72 in 10.0 mi ESE 8.1 mph - N/A   Clear
3:35 PM 64.0 °F - 50.2 °F 61% 29.71 in 10.0 mi SE 9.2 mph - N/A   Clear
3:55 PM 64.0 °F - 50.2 °F 61% 29.71 in 10.0 mi ESE 8.1 mph - N/A   Clear
4:15 PM 64.4 °F - 50.5 °F 61% 29.69 in 10.0 mi ESE 4.6 mph - N/A   Clear
4:35 PM 64.4 °F - 51.1 °F 62% 29.69 in 10.0 mi ESE 5.8 mph - N/A   Clear
4:55 PM 64.2 °F - 51.3 °F 63% 29.69 in 10.0 mi ESE 3.5 mph - N/A   Clear
5:15 PM 62.8 °F - 51.1 °F 66% 29.69 in 10.0 mi Calm Calm - N/A   Clear
5:35 PM 60.1 °F - 50.7 °F 71% 29.69 in 10.0 mi Calm Calm - N/A   Clear
5:55 PM 58.3 °F - 49.6 °F 73% 29.69 in 10.0 mi Calm Calm - N/A   Clear
6:15 PM 57.2 °F - 50.0 °F 77% 29.69 in 10.0 mi Calm Calm - N/A   Clear
6:35 PM 58.3 °F - 50.4 °F 75% 29.69 in 10.0 mi Calm Calm - N/A   Clear
6:55 PM 59.9 °F - 51.1 °F 73% 29.69 in 10.0 mi ESE 4.6 mph - N/A   Clear
7:15 PM 61.0 °F - 52.2 °F 73% 29.70 in 10.0 mi ESE 4.6 mph - N/A   Scattered Clouds
7:35 PM 61.5 °F - 52.7 °F 73% 29.69 in 10.0 mi ESE 4.6 mph - N/A   Mostly Cloudy
7:55 PM 61.9 °F - 53.2 °F 73% 29.69 in 10.0 mi ESE 5.8 mph - N/A   Mostly Cloudy
8:15 PM 61.9 °F - 53.6 °F 74% 29.69 in 10.0 mi ESE 6.9 mph - N/A   Scattered Clouds
8:35 PM 61.9 °F - 53.8 °F 75% 29.68 in 10.0 mi ESE 6.9 mph - N/A   Scattered Clouds
8:55 PM 60.3 °F - 53.8 °F 79% 29.69 in 10.0 mi SE 6.9 mph - N/A   Scattered Clouds
9:15 PM 59.5 °F - 53.8 °F 81% 29.68 in 10.0 mi SE 5.8 mph - N/A   Clear
9:35 PM 59.4 °F - 54.5 °F 84% 29.68 in 10.0 mi SE 5.8 mph - N/A   Clear
9:55 PM 60.1 °F - 55.4 °F 85% 29.68 in 10.0 mi SE 5.8 mph - N/A   Clear
10:15 PM 60.8 °F - 56.1 °F 85% 29.67 in 10.0 mi ESE 5.8 mph - N/A   Clear
10:35 PM 61.7 °F - 56.7 °F 84% 29.66 in 10.0 mi SE 8.1 mph - N/A   Clear
10:55 PM 61.9 °F - 56.8 °F 84% 29.65 in 10.0 mi SE 9.2 mph - N/A   Clear
11:15 PM 62.1 °F - 57.0 °F 84% 29.64 in 10.0 mi SE 9.2 mph - N/A   Clear
11:35 PM 61.7 °F - 57.0 °F 85% 29.64 in 10.0 mi ESE 9.2 mph - N/A   Clear
11:55 PM 61.2 °F - 57.0 °F 86% 29.64 in 10.0 mi SE 9.2 mph - N/A   Clear